Accueil
METAR-TAF:

METAR-TAF

Aéroports :

Monte Cimone, Italie

latitude: 44-12N, longitude: 010-42E, altitude: 2165 m

Observation

Le bulletin a été fait il y a 43 minutes, à 04:55 UTC
Vent 15 kt de ouest/sud-ouest
Température 0°C
Humidité 40%
Pression 1024 hPa

METAR: LIVC 040455Z AUTO 25015KT //// 00/M12 Q1024

Heure: 06:38 (05:38 UTC)


TAF: absent

Observations et prévisions météorologiques de plus de 4000 aéroports (messages METAR et TAF).

Les stations disponibles sont représentées par des disques jaunes et rouges sur la carte.

Passer la souris dessus pour voir le nom de la station.

Cliquer dessus pour voir les observations et prévisions météorologiques.

Pour changer de carte: cliquez sur les boutons verts avec une croix noire pour zoomer, sur le bouton vert avec un tiret pour effectuer un zoom arrière, ou sur les flèches vertes pour les cartes adjacentes.


METAR-TAF: